TimeSAST,TemperatureF,Dew PointF,Humidity,Sea Level PressureIn,VisibilityMPH,Wind Direction,Wind SpeedMPH,Gust SpeedMPH,PrecipitationIn,Events,Conditions,WindDirDegrees,DateUTC
12:00 AM,48.2,42.8,82,30.54,-9999.0,NW,4.6,-,N/A,,Clear,320,2013-07-29 22:00:00
1:00 AM,48.2,41.0,76,30.54,-9999.0,NNW,4.6,-,N/A,,Clear,330,2013-07-29 23:00:00
2:00 AM,46,41,77,30.56,12,NW,4.6,,,,,310,2013-07-30 00:00:00
2:00 AM,46.4,41.0,81,30.54,-9999.0,WNW,4.6,-,N/A,,Clear,300,2013-07-30 00:00:00
3:00 AM,46.4,41.0,81,30.54,6.2,NNW,4.6,-,N/A,,Partly Cloudy,330,2013-07-30 01:00:00
4:00 AM,44.6,41.0,87,30.54,6.2,North,4.6,-,N/A,,Mostly Cloudy,360,2013-07-30 02:00:00
5:00 AM,46,41,76,30.56,12,NW,4.6,,,,Partly Cloudy,310,2013-07-30 03:00:00
5:00 AM,46.4,41.0,81,30.54,6.2,NW,5.8,-,N/A,,Scattered Clouds,320,2013-07-30 03:00:00
6:00 AM,42.8,41.0,93,30.51,6.2,North,3.5,-,N/A,,Partly Cloudy,10,2013-07-30 04:00:00
7:00 AM,44.6,41.0,87,30.51,-9999.0,NNE,4.6,-,N/A,,Clear,20,2013-07-30 05:00:00
8:00 AM,45,40,75,30.56,12,North,3.5,,,,,0,2013-07-30 06:00:00
8:00 AM,44.6,39.2,81,30.54,-9999.0,North,3.5,-,N/A,,Clear,360,2013-07-30 06:00:00
9:00 AM,51.8,44.6,76,30.54,-9999.0,North,3.5,-,N/A,,Clear,10,2013-07-30 07:00:00
10:00 AM,57.2,44.6,63,30.54,-9999.0,East,3.5,-,N/A,,Clear,90,2013-07-30 08:00:00
11:00 AM,60,45,47,30.53,12,ESE,5.8,,,,,110,2013-07-30 09:00:00
11:00 AM,60.8,44.6,55,30.54,-9999.0,ESE,5.8,-,N/A,,Clear,110,2013-07-30 09:00:00
12:00 PM,60.8,42.8,52,30.51,-9999.0,ESE,6.9,-,N/A,,Clear,120,2013-07-30 10:00:00
1:00 PM,60.8,46.4,59,30.48,-9999.0,SE,8.1,-,N/A,,Clear,140,2013-07-30 11:00:00
2:00 PM,62,47,48,30.46,12,SE,10.4,,,,,140,2013-07-30 12:00:00
2:00 PM,62.6,48.2,59,30.45,-9999.0,ESE,9.2,-,N/A,,Clear,120,2013-07-30 12:00:00
3:00 PM,60.8,48.2,63,30.45,-9999.0,SE,10.4,-,N/A,,Clear,130,2013-07-30 13:00:00
4:00 PM,59.0,48.2,67,30.45,-9999.0,ESE,9.2,-,N/A,,Clear,110,2013-07-30 14:00:00
5:00 PM,57,49,66,30.46,12,East,6.9,,,,,100,2013-07-30 15:00:00
5:00 PM,57.2,48.2,72,30.45,-9999.0,ESE,8.1,-,N/A,,Clear,110,2013-07-30 15:00:00
6:00 PM,51.8,48.2,88,30.45,-9999.0,East,5.8,-,N/A,,Clear,90,2013-07-30 16:00:00
7:00 PM,51.8,48.2,88,30.45,-9999.0,ENE,4.6,-,N/A,,Clear,60,2013-07-30 17:00:00
8:00 PM,50,48,89,30.46,4,NE,3.5,,,,Haze,40,2013-07-30 18:00:00
8:00 PM,50.0,48.2,94,30.45,4.3,NNE,3.5,-,N/A,,Haze,20,2013-07-30 18:00:00
10:00 PM,44.6,41.0,87,30.45,-9999.0,NW,3.5,-,N/A,,Clear,320,2013-07-30 20:00:00
11:00 PM,46.4,42.8,87,30.42,-9999.0,NNW,4.6,-,N/A,,Clear,340,2013-07-30 21:00:00